| time (UTC) | temp F | wind direction | speed MPH | gust MPH | rain 1hr in | rain 24hr in | rain mn in | humidity % | barometer mb |
| 20260505035138 | 64 | 168 | 3.0 | 5.0 | 0.00 | 0.00 | 0.00 | 64 | 1011.1 |
| 20260505034556 | 64 | 93 | 2.0 | 4.0 | 0.00 | 0.00 | 0.00 | 65 | 1011.1 |
| 20260505033913 | 64 | 150 | 3.0 | 6.0 | 0.00 | 0.00 | 0.00 | 64 | 1011.1 |
| 20260505033320 | 64 | 57 | 3.0 | 6.0 | 0.00 | 0.00 | 0.00 | 64 | 1011.1 |
| 20260505032719 | 64 | 156 | 2.0 | 3.0 | 0.00 | 0.00 | 0.00 | 64 | 1011.1 |
| 20260505032128 | 64 | 189 | 3.0 | 6.0 | 0.00 | 0.00 | 0.00 | 64 | 1011.1 |
| 20260505031514 | 64 | 160 | 4.0 | 5.0 | 0.00 | 0.00 | 0.00 | 64 | 1011.1 |
| 20260505030941 | 64 | 231 | 2.0 | 6.0 | 0.00 | 0.00 | 0.00 | 64 | 1011.1 |
| 20260505030344 | 64 | 194 | 4.0 | 9.0 | 0.00 | 0.00 | 0.00 | 64 | 1011.1 |
| 20260505025743 | 64 | 123 | 4.0 | 5.0 | 0.00 | 0.00 | 0.00 | 65 | 1011.1 |
| 20260505025129 | 63 | 142 | 1.0 | 3.0 | 0.00 | 0.00 | 0.00 | 65 | 1011.1 |
| 20260505024538 | 63 | 76 | 1.0 | 3.0 | 0.00 | 0.00 | 0.00 | 65 | 1011.1 |
| 20260505022123 | 64 | 16 | 0.0 | 5.0 | 0.00 | 0.00 | 0.00 | 63 | 1011.1 |
| 20260505021511 | 64 | 42 | 2.0 | 6.0 | 0.00 | 0.00 | 0.00 | 64 | 1011.1 |
| 20260505020926 | 64 | 132 | 3.0 | 5.0 | 0.00 | 0.00 | 0.00 | 64 | 1010.8 |
| 20260505020317 | 64 | 143 | 2.0 | 4.0 | 0.00 | 0.00 | 0.00 | 64 | 1011.1 |
| 20260505015154 | 64 | 17 | 3.0 | 5.0 | 0.00 | 0.00 | 0.00 | 63 | 1011.1 |
| 20260505014530 | 64 | 54 | 2.0 | 4.0 | 0.00 | 0.00 | 0.00 | 64 | 1010.8 |
| 20260505013918 | 65 | 128 | 1.0 | 3.0 | 0.00 | 0.00 | 0.00 | 63 | 1011.1 |
| 20260505013318 | 65 | 322 | 2.0 | 3.0 | 0.00 | 0.00 | 0.00 | 63 | 1011.1 |
| 20260505012711 | 65 | 61 | 2.0 | 5.0 | 0.00 | 0.00 | 0.00 | 63 | 1011.1 |
| 20260505012147 | 65 | 33 | 1.0 | 4.0 | 0.00 | 0.00 | 0.00 | 62 | 1011.1 |
| 20260505011536 | 65 | 106 | 0.0 | 3.0 | 0.00 | 0.00 | 0.00 | 62 | 1011.1 |
| 20260505010914 | 66 | 350 | 0.0 | 3.0 | 0.00 | 0.00 | 0.00 | 61 | 1011.1 |
| 20260505010331 | 66 | 16 | 0.0 | 4.0 | 0.00 | 0.00 | 0.00 | 61 | 1011.1 |
| 20260505005751 | 66 | 13 | 2.0 | 5.0 | 0.00 | 0.00 | 0.00 | 60 | 1010.8 |
| 20260505005121 | 66 | 14 | 2.0 | 2.0 | 0.00 | 0.00 | 0.00 | 61 | 1011.1 |
| 20260505004534 | 66 | 40 | 2.0 | 4.0 | 0.00 | 0.00 | 0.00 | 60 | 1011.1 |
| 20260505003929 | 66 | 34 | 2.0 | 4.0 | 0.00 | 0.00 | 0.00 | 60 | 1011.1 |
| 20260505003354 | 67 | 358 | 2.0 | 3.0 | 0.00 | 0.00 | 0.00 | 59 | 1011.1 |
| 20260505002111 | 67 | 158 | 2.0 | 3.0 | 0.00 | 0.00 | 0.00 | 59 | 1011.1 |
| 20260505001513 | 67 | 89 | 0.0 | 4.0 | 0.00 | 0.00 | 0.00 | 59 | 1011.1 |
| 20260505000916 | 67 | 106 | 1.0 | 4.0 | 0.00 | 0.00 | 0.00 | 58 | 1011.1 |
| 20260505000318 | 67 | 141 | 3.0 | 3.0 | 0.00 | 0.00 | 0.00 | 58 | 1011.1 |
| 20260504235715 | 68 | 148 | 2.0 | 4.0 | 0.00 | 0.00 | 0.00 | 57 | 1011.1 |
| 20260504234528 | 68 | 172 | 2.0 | 4.0 | 0.00 | 0.00 | 0.00 | 56 | 1011.1 |
| 20260504233933 | 68 | 135 | 2.0 | 3.0 | 0.00 | 0.00 | 0.00 | 56 | 1011.1 |
| 20260504233341 | 68 | 192 | 3.0 | 5.0 | 0.00 | 0.00 | 0.00 | 56 | 1011.5 |
| 20260504232715 | 69 | 171 | 4.0 | 7.0 | 0.00 | 0.00 | 0.00 | 55 | 1011.5 |
| 20260504232153 | 68 | 173 | 5.0 | 7.0 | 0.00 | 0.00 | 0.00 | 56 | 1011.5 |
| 20260504231519 | 69 | 156 | 7.0 | 8.0 | 0.00 | 0.00 | 0.00 | 55 | 1011.8 |
| 20260504230952 | 68 | 176 | 3.0 | 3.0 | 0.00 | 0.00 | 0.00 | 55 | 1011.5 |
| 20260504225714 | 69 | 208 | 4.0 | 10.0 | 0.00 | 0.00 | 0.00 | 54 | 1011.5 |
| 20260504225147 | 69 | 191 | 4.0 | 9.0 | 0.00 | 0.00 | 0.00 | 54 | 1011.5 |
| 20260504224511 | 69 | 261 | 3.0 | 5.0 | 0.00 | 0.00 | 0.00 | 54 | 1011.8 |
| 20260504223935 | 69 | 180 | 6.0 | 6.0 | 0.00 | 0.00 | 0.00 | 53 | 1011.5 |
| 20260504223316 | 70 | 273 | 4.0 | 7.0 | 0.00 | 0.00 | 0.00 | 51 | 1011.8 |
| 20260504222753 | 69 | 190 | 7.0 | 9.0 | 0.00 | 0.00 | 0.00 | 52 | 1011.8 |
| 20260504222112 | 70 | 262 | 2.0 | 9.0 | 0.00 | 0.00 | 0.00 | 53 | 1011.5 |
| 20260504221522 | 70 | 289 | 3.0 | 10.0 | 0.00 | 0.00 | 0.00 | 53 | 1011.5 |
| 20260504220927 | 70 | 170 | 5.0 | 7.0 | 0.00 | 0.00 | 0.00 | 54 | 1011.5 |
| 20260504220316 | 70 | 224 | 4.0 | 17.0 | 0.00 | 0.00 | 0.00 | 52 | 1011.5 |
| 20260504215123 | 70 | 207 | 4.0 | 6.0 | 0.00 | 0.00 | 0.00 | 52 | 1011.5 |
| 20260504214552 | 71 | 186 | 7.0 | 14.0 | 0.00 | 0.00 | 0.00 | 52 | 1011.1 |
| 20260504213950 | 71 | 170 | 4.0 | 10.0 | 0.00 | 0.00 | 0.00 | 51 | 1011.1 |
| 20260504211527 | 70 | 253 | 4.0 | 8.0 | 0.00 | 0.00 | 0.00 | 55 | 1011.5 |
| 20260504210950 | 70 | 215 | 2.0 | 11.0 | 0.00 | 0.00 | 0.00 | 52 | 1011.5 |
| 20260504210330 | 70 | 183 | 3.0 | 6.0 | 0.00 | 0.00 | 0.00 | 54 | 1011.1 |
| 20260504205734 | 70 | 158 | 3.0 | 6.0 | 0.00 | 0.00 | 0.00 | 54 | 1011.1 |
| 20260504205140 | 69 | 166 | 4.0 | 6.0 | 0.00 | 0.00 | 0.00 | 55 | 1011.1 |
| 20260504204542 | 70 | 203 | 0.0 | 4.0 | 0.00 | 0.00 | 0.00 | 54 | 1011.5 |
| 20260504203931 | 68 | 152 | 7.0 | 9.0 | 0.00 | 0.00 | 0.00 | 56 | 1011.5 |
| 20260504202734 | 68 | 230 | 1.0 | 15.0 | 0.00 | 0.00 | 0.00 | 54 | 1011.5 |
| 20260504202114 | 69 | 201 | 2.0 | 12.0 | 0.00 | 0.00 | 0.00 | 52 | 1011.8 |
| 20260504201541 | 69 | 193 | 7.0 | 12.0 | 0.00 | 0.00 | 0.00 | 53 | 1011.5 |
| 20260504200320 | 70 | 187 | 6.0 | 10.0 | 0.00 | 0.00 | 0.00 | 53 | 1011.5 |
| 20260504195752 | 69 | 179 | 7.0 | 10.0 | 0.00 | 0.00 | 0.00 | 54 | 1011.8 |
| 20260504195124 | 69 | 188 | 4.0 | 12.0 | 0.00 | 0.00 | 0.00 | 53 | 1011.5 |
| 20260504194552 | 69 | 123 | 6.0 | 8.0 | 0.00 | 0.00 | 0.00 | 53 | 1011.5 |
| 20260504193936 | 70 | 163 | 5.0 | 11.0 | 0.00 | 0.00 | 0.00 | 52 | 1011.8 |
| 20260504193337 | 70 | 162 | 12.0 | 13.0 | 0.00 | 0.00 | 0.00 | 53 | 1011.8 |
| 20260504192722 | 71 | 258 | 5.0 | 17.0 | 0.00 | 0.00 | 0.00 | 52 | 1011.8 |
| 20260504192139 | 71 | 150 | 7.0 | 20.0 | 0.00 | 0.00 | 0.00 | 51 | 1011.8 |
| 20260504191533 | 71 | 198 | 9.0 | 12.0 | 0.00 | 0.00 | 0.00 | 51 | 1011.8 |
| 20260504190949 | 70 | 212 | 4.0 | 6.0 | 0.00 | 0.00 | 0.00 | 55 | 1011.8 |
| 20260504185733 | 69 | 146 | 9.0 | 19.0 | 0.00 | 0.00 | 0.00 | 52 | 1011.8 |
| 20260504184535 | 71 | 180 | 14.0 | 18.0 | 0.00 | 0.00 | 0.00 | 50 | 1011.8 |
| 20260504183943 | 71 | 143 | 8.0 | 15.0 | 0.00 | 0.00 | 0.00 | 51 | 1011.8 |
| 20260504183329 | 71 | 187 | 3.0 | 10.0 | 0.00 | 0.00 | 0.00 | 52 | 1011.8 |
| 20260504182741 | 70 | 173 | 8.0 | 15.0 | 0.00 | 0.00 | 0.00 | 50 | 1011.8 |
| 20260504182142 | 70 | 206 | 5.0 | 18.0 | 0.00 | 0.00 | 0.00 | 51 | 1011.8 |
| 20260504181512 | 69 | 185 | 3.0 | 6.0 | 0.00 | 0.00 | 0.00 | 53 | 1012.1 |
| 20260504180923 | 69 | 189 | 10.0 | 17.0 | 0.00 | 0.00 | 0.00 | 51 | 1011.8 |
| 20260504180320 | 68 | 257 | 2.0 | 16.0 | 0.00 | 0.00 | 0.00 | 51 | 1012.1 |
| 20260504175748 | 68 | 161 | 7.0 | 18.0 | 0.00 | 0.00 | 0.00 | 53 | 1012.5 |
| 20260504174534 | 68 | 205 | 7.0 | 20.0 | 0.00 | 0.00 | 0.00 | 54 | 1012.1 |
| 20260504173931 | 68 | 157 | 9.0 | 13.0 | 0.00 | 0.00 | 0.00 | 55 | 1012.5 |
| 20260504172713 | 68 | 121 | 8.0 | 12.0 | 0.00 | 0.00 | 0.00 | 53 | 1012.8 |
| 20260504172134 | 67 | 142 | 8.0 | 17.0 | 0.00 | 0.00 | 0.00 | 56 | 1012.5 |
| 20260504171554 | 67 | 185 | 8.0 | 17.0 | 0.00 | 0.00 | 0.00 | 54 | 1013.2 |
| 20260504170919 | 66 | 146 | 10.0 | 16.0 | 0.00 | 0.00 | 0.00 | 55 | 1012.8 |
| 20260504170335 | 66 | 190 | 7.0 | 20.0 | 0.00 | 0.00 | 0.00 | 57 | 1013.2 |
| 20260504160347 | 63 | 156 | 9.0 | 18.0 | 0.00 | 0.00 | 0.00 | 58 | 1013.8 |
| 20260504141236 | 61 | 181 | 7.0 | 13.0 | 0.00 | 0.00 | 0.00 | 55 | 1014.5 |
| 20260504140653 | 60 | 170 | 9.0 | 18.0 | 0.00 | 0.00 | 0.00 | 55 | 1014.5 |
| 20260504130633 | 57 | 213 | 9.0 | 13.0 | 0.00 | 0.00 | 0.00 | 57 | 1014.5 |
| 20260504110627 | 49 | 128 | 4.0 | 9.0 | 0.00 | 0.00 | 0.00 | 75 | 1014.9 |
| 20260504081814 | 50 | 115 | 7.0 | 8.0 | 0.00 | 0.00 | 0.00 | 68 | 1015.5 |
| 20260504081216 | 50 | 53 | 0.0 | 3.0 | 0.00 | 0.00 | 0.00 | 65 | 1015.5 |
| 20260504080626 | 50 | 127 | 3.0 | 3.0 | 0.00 | 0.00 | 0.00 | 65 | 1015.5 |
| 20260504045417 | 52 | 133 | 1.0 | 4.0 | 0.00 | 0.00 | 0.00 | 51 | 1016.2 |
| 20260504044831 | 52 | 163 | 2.0 | 3.0 | 0.00 | 0.00 | 0.00 | 50 | 1016.5 |
| 20260504044221 | 52 | 131 | 4.0 | 4.0 | 0.00 | 0.00 | 0.00 | 50 | 1016.2 |
| 20260504043642 | 53 | 162 | 1.0 | 4.0 | 0.00 | 0.00 | 0.00 | 50 | 1016.2 |
| 20260504043048 | 53 | 192 | 3.0 | 3.0 | 0.00 | 0.00 | 0.00 | 49 | 1016.2 |
| 20260504042431 | 53 | 210 | 0.0 | 4.0 | 0.00 | 0.00 | 0.00 | 47 | 1016.5 |
| 20260504041228 | 53 | 135 | 1.0 | 4.0 | 0.00 | 0.00 | 0.00 | 50 | 1016.5 |
| 20260504040644 | 52 | 156 | 2.0 | 3.0 | 0.00 | 0.00 | 0.00 | 49 | 1016.5 |
| 20260504040029 | 53 | 177 | 2.0 | 3.0 | 0.00 | 0.00 | 0.00 | 49 | 1016.5 |